WC4PEM-9 Weather Reports


Display with metric or nautical units.
time (UTC)temp
F
wind
direction
speed
MPH
gust
MPH
rain 1hr
in
rain 24hr
in
rain mn
in
humidity
%
barometer
mb
20260506134325 77 137 4.0 7.0 0.00 0.00 0.00 82 1016.8
20260506133825 77 171 5.0 12.0 0.00 0.00 0.00 83 1016.9
20260506133550 76 155 5.0 10.0 0.00 0.00 0.00 84 1016.7
20260506133325 76 155 5.0 10.0 0.00 0.00 0.00 84 1016.7
20260506132825 76 173 6.0 10.0 0.00 0.00 0.00 85 1016.8
20260506132325 76 134 5.0 15.0 0.00 0.00 0.00 85 1016.8
20260506131825 75 175 4.0 10.0 0.00 0.00 0.00 86 1016.7
20260506131325 75 338 5.0 11.0 0.00 0.00 0.00 87 1016.7
20260506130825 74 156 5.0 11.0 0.00 0.00 0.00 88 1016.6
20260506130325 74 161 4.0 11.0 0.00 0.00 0.00 89 1016.4
20260506125825 73 111 4.0 8.0 0.00 0.00 0.00 90 1016.5
20260506125325 72 157 4.0 9.0 0.00 0.00 0.00 91 1016.2
20260506124825 72 148 3.0 9.0 0.00 0.00 0.00 92 1016.4
20260506124325 71 93 3.0 7.0 0.00 0.00 0.00 93 1016.4
20260506123825 70 178 3.0 6.0 0.00 0.00 0.00 94 1016.3
20260506123325 69 123 3.0 8.0 0.00 0.00 0.00 95 1016.2
20260506122825 68 157 3.0 8.0 0.00 0.00 0.00 95 1016.4
20260506122325 66 123 2.0 5.0 0.00 0.00 0.00 95 1016.3
20260506121825 65 165 1.0 4.0 0.00 0.00 0.00 95 1016.2
20260506121325 65 158 1.0 3.0 0.00 0.00 0.00 95 1016.1
20260506120825 64 239 1.0 2.0 0.00 0.00 0.00 95 1016.2
20260506120325 63 298 1.0 2.0 0.00 0.00 0.00 95 1016.2
20260506115825 63 298 1.0 2.0 0.00 0.00 0.00 95 1016.2
20260506115325 63 319 1.0 2.0 0.00 0.00 0.00 95 1016.1
20260506114825 62 279 1.0 2.0 0.00 0.00 0.00 95 1016.1
20260506114325 62 221 1.0 1.0 0.00 0.00 0.00 95 1016.1
20260506113825 62 137 1.0 2.0 0.00 0.00 0.00 95 1016.1
20260506113756 62 51 1.0 2.0 0.00 0.00 0.00 95 1016.0
20260506113325 62 51 1.0 2.0 0.00 0.00 0.00 95 1016.0
20260506112825 62 221 1.0 2.0 0.00 0.00 0.00 95 1015.8
20260506112325 62 178 1.0 2.0 0.00 0.00 0.00 95 1015.7
20260506111825 62 76 1.0 2.0 0.00 0.00 0.00 94 1015.9
20260506111325 61 221 1.0 2.0 0.00 0.00 0.00 94 1015.9
20260506110825 61 239 1.0 2.0 0.00 0.00 0.00 94 1015.8
20260506110325 61 120 1.0 3.0 0.00 0.00 0.00 94 1015.8
20260506105825 61 144 1.0 2.0 0.00 0.00 0.00 94 1015.7
20260506105454 61 93 1.0 4.0 0.00 0.00 0.00 94 1015.3
20260506105325 61 137 1.0 2.0 0.00 0.00 0.00 94 1015.6
20260506104825 61 93 1.0 4.0 0.00 0.00 0.00 94 1015.3
20260506104325 61 129 1.0 3.0 0.00 0.00 0.00 94 1015.0
20260506104130 61 178 1.0 2.0 0.00 0.00 0.00 94 1015.4
20260506103825 61 51 1.0 2.0 0.00 0.00 0.00 94 1015.2
20260506103325 61 76 1.0 2.0 0.00 0.00 0.00 94 1015.4
20260506102825 61 178 1.0 2.0 0.00 0.00 0.00 94 1015.4
20260506102325 61 221 1.0 2.0 0.00 0.00 0.00 94 1015.6
20260506101825 61 126 1.0 2.0 0.00 0.00 0.00 94 1015.3
20260506101325 61 153 0.0 1.0 0.00 0.00 0.00 94 1015.4
20260506100825 61 265 0.0 1.0 0.00 0.00 0.00 94 1015.4
20260506100325 61 221 0.0 1.0 0.00 0.00 0.00 94 1015.2
20260506095825 61 137 1.0 2.0 0.00 0.00 0.00 94 1015.2
20260506095325 61 137 1.0 2.0 0.00 0.00 0.00 94 1015.3
20260506094825 61 330 1.0 2.0 0.00 0.00 0.00 94 1015.5
20260506094325 62 9 1.0 2.0 0.00 0.00 0.00 94 1015.4
20260506093825 62 325 1.0 2.0 0.00 0.00 0.00 94 1015.4
20260506093325 62 51 1.0 1.0 0.00 0.00 0.00 94 1015.5
20260506092825 62 178 1.0 1.0 0.00 0.00 0.00 94 1015.4
20260506092325 62 137 1.0 1.0 0.00 0.00 0.00 94 1015.2
20260506091825 62 265 1.0 1.0 0.00 0.00 0.00 94 1015.1
20260506091325 62 178 1.0 1.0 0.00 0.00 0.00 94 1015.1
20260506090948 62 265 1.0 2.0 0.00 0.00 0.00 94 1015.3
20260506090825 62 137 1.0 1.0 0.00 0.00 0.00 94 1015.2
20260506090325 62 265 1.0 2.0 0.00 0.00 0.00 94 1015.3
20260506085825 62 137 1.0 1.0 0.00 0.00 0.00 94 1015.1
20260506085325 62 137 1.0 2.0 0.00 0.00 0.00 94 1015.0
20260506084825 62 120 1.0 2.0 0.00 0.00 0.00 94 1015.0
20260506084325 62 137 1.0 2.0 0.00 0.00 0.00 94 1014.9
20260506083825 62 205 1.0 2.0 0.00 0.00 0.00 94 1015.0
20260506083325 62 153 1.0 1.0 0.00 0.00 0.00 94 1014.8
20260506082825 62 265 1.0 2.0 0.00 0.00 0.00 94 1015.0
20260506082325 62 111 1.0 2.0 0.00 0.00 0.00 93 1015.0
20260506081825 62 126 0.0 1.0 0.00 0.00 0.00 93 1015.3
20260506081325 62 178 0.0 1.0 0.00 0.00 0.00 93 1015.2
20260506080825 62 51 1.0 1.0 0.00 0.00 0.00 93 1015.4
20260506080325 62 265 1.0 2.0 0.00 0.00 0.00 93 1015.3
20260506073325 62 165 1.0 2.0 0.00 0.00 0.00 93 1015.2
20260506072825 62 162 1.0 1.0 0.00 0.00 0.00 93 1015.3
20260506072325 62 9 1.0 1.0 0.00 0.00 0.00 93 1015.4
20260506071825 63 51 1.0 1.0 0.00 0.00 0.00 93 1015.4
20260506071325 63 153 1.0 1.0 0.00 0.00 0.00 93 1015.3
20260506070825 63 153 1.0 2.0 0.00 0.00 0.00 93 1015.1
20260506070325 63 178 1.0 2.0 0.00 0.00 0.00 93 1015.2
20260506062326 63 103 1.0 2.0 0.00 0.00 0.00 92 1015.7
20260506061826 63 120 1.0 2.0 0.00 0.00 0.00 92 1015.5
20260506061326 63 178 1.0 2.0 0.00 0.00 0.00 92 1015.7
20260506060826 63 111 1.0 2.0 0.00 0.00 0.00 92 1015.9
20260506060326 63 93 1.0 2.0 0.00 0.00 0.00 92 1016.0
20260506051326 64 221 1.0 2.0 0.00 0.00 0.00 90 1016.2
20260506050826 64 137 1.0 2.0 0.00 0.00 0.00 89 1016.3
20260506050326 64 146 0.0 2.0 0.00 0.00 0.00 89 1016.0
20260506044826 64 265 1.0 1.0 0.00 0.00 0.00 88 1016.1
20260506044715 65 120 1.0 2.0 0.00 0.00 0.00 88 1016.4
20260506044326 65 120 1.0 2.0 0.00 0.00 0.00 88 1016.4
20260506043929 65 51 1.0 2.0 0.00 0.00 0.00 88 1016.5
20260506043826 65 9 1.0 2.0 0.00 0.00 0.00 88 1016.4
20260506043326 65 51 1.0 2.0 0.00 0.00 0.00 88 1016.5
20260506042826 65 165 1.0 2.0 0.00 0.00 0.00 88 1016.5
20260506042600 65 126 2.0 2.0 0.00 0.00 0.00 88 1016.0
20260506042326 65 319 1.0 1.0 0.00 0.00 0.00 88 1016.4
20260506041826 65 126 2.0 2.0 0.00 0.00 0.00 88 1016.0
20260506041326 65 144 2.0 4.0 0.00 0.00 0.00 88 1016.1
20260506040826 65 158 1.0 3.0 0.00 0.00 0.00 87 1016.2
20260506040326 65 146 1.0 3.0 0.00 0.00 0.00 87 1015.9
20260506035826 66 137 1.0 2.0 0.00 0.00 0.00 87 1016.1
20260506035326 66 126 1.0 2.0 0.00 0.00 0.00 86 1016.3
20260506034826 66 137 1.0 2.0 0.00 0.00 0.00 86 1016.4
20260506034326 66 9 2.0 4.0 0.00 0.00 0.00 86 1016.4
20260506033826 66 144 2.0 5.0 0.00 0.00 0.00 85 1016.3
20260506033326 66 137 2.0 4.0 0.00 0.00 0.00 85 1015.9
20260506032826 67 153 2.0 4.0 0.00 0.00 0.00 85 1016.2
20260506032326 67 156 2.0 4.0 0.00 0.00 0.00 84 1016.3
20260506031826 67 137 2.0 4.0 0.00 0.00 0.00 84 1016.3
20260506031326 67 160 2.0 4.0 0.00 0.00 0.00 83 1016.2
20260506030826 67 111 2.0 4.0 0.00 0.00 0.00 83 1016.3
20260506030534 68 178 2.0 4.0 0.00 0.00 0.00 82 1016.4
20260506030326 68 123 2.0 4.0 0.00 0.00 0.00 82 1016.3
20260506025826 68 178 2.0 4.0 0.00 0.00 0.00 82 1016.4
20260506025326 68 158 1.0 2.0 0.00 0.00 0.00 81 1016.2
20260506024826 69 153 1.0 2.0 0.00 0.00 0.00 81 1016.1
20260506024326 69 153 1.0 2.0 0.00 0.00 0.00 80 1016.2
20260506023826 69 146 1.0 2.0 0.00 0.00 0.00 79 1016.1
20260506023812 69 146 1.0 2.0 0.00 0.00 0.00 78 1016.2
20260506023326 69 146 1.0 2.0 0.00 0.00 0.00 78 1016.2
20260506022826 70 93 1.0 2.0 0.00 0.00 0.00 77 1015.9
20260506022326 70 9 1.0 2.0 0.00 0.00 0.00 76 1016.0
20260506022051 71 137 1.0 2.0 0.00 0.00 0.00 75 1016.1
20260506021826 70 162 1.0 2.0 0.00 0.00 0.00 76 1015.9
20260506021326 71 137 1.0 2.0 0.00 0.00 0.00 75 1016.1
20260506020826 71 93 1.0 3.0 0.00 0.00 0.00 75 1015.9
20260506020633 71 9 1.0 3.0 0.00 0.00 0.00 74 1015.8
20260506020452 71 93 2.0 4.0 0.00 0.00 0.00 73 1015.9
20260506020326 71 9 1.0 3.0 0.00 0.00 0.00 74 1015.8
20260506015826 71 93 2.0 4.0 0.00 0.00 0.00 73 1015.9
20260506015326 72 221 2.0 5.0 0.00 0.00 0.00 72 1015.8
20260506014826 72 178 2.0 4.0 0.00 0.00 0.00 72 1015.7
20260506014326 72 110 2.0 3.0 0.00 0.00 0.00 72 1015.3
20260506013826 72 265 2.0 8.0 0.00 0.00 0.00 71 1015.3
20260506013552 72 133 2.0 4.0 0.00 0.00 0.00 70 1015.3
20260506013504 73 142 2.0 7.0 0.00 0.00 0.00 70 1015.3
20260506013326 72 133 2.0 4.0 0.00 0.00 0.00 70 1015.3
20260506013218 73 142 2.0 7.0 0.00 0.00 0.00 70 1015.3
20260506012826 73 142 2.0 7.0 0.00 0.00 0.00 70 1015.3
20260506012326 73 265 1.0 3.0 0.00 0.00 0.00 70 1015.2
20260506012041 73 111 2.0 4.0 0.00 0.00 0.00 70 1015.2
20260506011826 73 111 2.0 4.0 0.00 0.00 0.00 70 1015.2
20260506011326 74 124 2.0 7.0 0.00 0.00 0.00 69 1014.9
20260506010826 74 158 3.0 5.0 0.00 0.00 0.00 68 1015.1
20260506010326 74 171 3.0 8.0 0.00 0.00 0.00 68 1015.0
20260506010043 74 151 3.0 8.0 0.00 0.00 0.00 67 1014.9
20260506005826 74 151 3.0 8.0 0.00 0.00 0.00 67 1014.9
20260506005326 74 93 3.0 9.0 0.00 0.00 0.00 67 1014.6
20260506004826 74 144 3.0 8.0 0.00 0.00 0.00 68 1014.7
20260506004326 75 137 3.0 8.0 0.00 0.00 0.00 68 1014.7
20260506003826 75 110 3.0 8.0 0.00 0.00 0.00 68 1014.7
20260506003326 75 131 2.0 8.0 0.00 0.00 0.00 67 1014.6
20260506003134 75 138 2.0 6.0 0.00 0.00 0.00 67 1014.7
20260506002826 75 138 2.0 6.0 0.00 0.00 0.00 67 1014.7
20260506002326 76 117 2.0 6.0 0.00 0.00 0.00 66 1014.4
20260506001826 76 165 3.0 6.0 0.00 0.00 0.00 65 1014.4
20260506001326 77 93 3.0 7.0 0.00 0.00 0.00 65 1014.2
20260506000826 77 34 4.0 8.0 0.00 0.00 0.00 64 1014.3
20260506000326 77 128 3.0 11.0 0.00 0.00 0.00 64 1014.0
20260505235826 78 124 3.0 8.0 0.00 0.00 0.00 64 1014.2
20260505235818 78 149 4.0 9.0 0.00 0.00 0.00 63 1014.1
20260505235326 78 149 4.0 9.0 0.00 0.00 0.00 63 1014.1
20260505235132 79 165 3.0 7.0 0.00 0.00 0.00 63 1014.1
20260505234826 79 165 3.0 7.0 0.00 0.00 0.00 63 1014.1
20260505234326 79 102 4.0 9.0 0.00 0.00 0.00 62 1014.0
20260505233826 79 66 5.0 10.0 0.00 0.00 0.00 62 1013.9
20260505233757 80 110 5.0 10.0 0.00 0.00 0.00 60 1013.9
20260505233327 80 110 5.0 10.0 0.00 0.00 0.00 60 1013.9
20260505233101 80 185 5.0 10.0 0.00 0.00 0.00 60 1013.7
20260505232826 80 185 5.0 10.0 0.00 0.00 0.00 60 1013.7
20260505232630 81 157 4.0 10.0 0.00 0.00 0.00 60 1013.8
20260505232327 81 157 4.0 10.0 0.00 0.00 0.00 60 1013.8
20260505231827 81 120 4.0 12.0 0.00 0.00 0.00 60 1013.5
20260505231326 81 137 4.0 9.0 0.00 0.00 0.00 59 1013.6
20260505230827 82 113 5.0 8.0 0.00 0.00 0.00 59 1013.9
20260505230719 82 41 4.0 11.0 0.00 0.00 0.00 57 1013.9
20260505230327 82 41 4.0 11.0 0.00 0.00 0.00 57 1013.9
20260505225827 83 66 3.0 9.0 0.00 0.00 0.00 57 1013.9
20260505225742 83 113 2.0 7.0 0.00 0.00 0.00 58 1013.9
20260505225327 83 113 2.0 7.0 0.00 0.00 0.00 58 1013.9
20260505224827 83 44 2.0 6.0 0.00 0.00 0.00 56 1013.9
20260505224327 84 140 2.0 8.0 0.00 0.00 0.00 56 1013.8
20260505223827 84 120 2.0 3.0 0.00 0.00 0.00 56 1013.9
20260505223327 84 131 3.0 7.0 0.00 0.00 0.00 54 1013.8
20260505222827 84 104 3.0 7.0 0.00 0.00 0.00 55 1013.8
20260505222327 85 153 4.0 7.0 0.00 0.00 0.00 54 1013.8
20260505221827 85 160 5.0 10.0 0.00 0.00 0.00 53 1013.5
20260505221632 86 165 5.0 10.0 0.00 0.00 0.00 52 1013.7
20260505221327 86 165 5.0 10.0 0.00 0.00 0.00 52 1013.7
20260505220827 86 115 4.0 12.0 0.00 0.00 0.00 51 1013.8
20260505220327 87 140 2.0 7.0 0.00 0.00 0.00 48 1013.8
20260505215827 87 61 2.0 4.0 0.00 0.00 0.00 48 1013.7
20260505215327 87 93 4.0 4.0 0.00 0.00 0.00 48 1013.8
20260505214827 87 113 4.0 8.0 0.00 0.00 0.00 49 1013.8
20260505214327 87 76 3.0 8.0 0.00 0.00 0.00 47 1013.8
20260505213827 87 20 3.0 6.0 0.00 0.00 0.00 48 1013.7
20260505213514 87 160 3.0 10.0 0.00 0.00 0.00 50 1013.5
20260505213327 87 160 3.0 10.0 0.00 0.00 0.00 50 1013.5
20260505213034 87 151 4.0 6.0 0.00 0.00 0.00 51 1013.6
20260505212827 87 151 4.0 6.0 0.00 0.00 0.00 51 1013.6
20260505212327 87 144 5.0 9.0 0.00 0.00 0.00 49 1013.7
20260505211827 87 20 5.0 10.0 0.00 0.00 0.00 48 1013.7
20260505211630 87 111 3.0 9.0 0.00 0.00 0.00 47 1013.4
20260505211327 87 111 3.0 9.0 0.00 0.00 0.00 47 1013.4
20260505210827 87 170 2.0 5.0 0.00 0.00 0.00 48 1013.6
20260505210536 87 170 2.0 4.0 0.00 0.00 0.00 46 1013.6
20260505210327 87 170 2.0 4.0 0.00 0.00 0.00 46 1013.6
20260505205827 87 265 3.0 5.0 0.00 0.00 0.00 46 1013.7
20260505205327 87 160 4.0 7.0 0.00 0.00 0.00 49 1013.6
20260505204827 87 165 3.0 9.0 0.00 0.00 0.00 47 1013.6
20260505204327 87 178 2.0 5.0 0.00 0.00 0.00 48 1013.7
20260505203827 87 137 2.0 5.0 0.00 0.00 0.00 49 1013.8
20260505203520 87 133 2.0 6.0 0.00 0.00 0.00 47 1013.9
20260505203327 87 133 2.0 6.0 0.00 0.00 0.00 47 1013.9
20260505203004 87 111 2.0 3.0 0.00 0.00 0.00 46 1013.9
20260505202827 87 111 2.0 3.0 0.00 0.00 0.00 46 1013.9
20260505202327 87 93 2.0 4.0 0.00 0.00 0.00 48 1013.8
20260505201827 86 144 3.0 5.0 0.00 0.00 0.00 48 1013.8
20260505201327 86 120 2.0 8.0 0.00 0.00 0.00 47 1013.9
20260505201011 86 76 2.0 3.0 0.00 0.00 0.00 50 1013.9
20260505200827 86 76 2.0 3.0 0.00 0.00 0.00 50 1013.9
20260505200327 86 111 3.0 4.0 0.00 0.00 0.00 48 1013.8
20260505195827 87 93 4.0 7.0 0.00 0.00 0.00 48 1013.7
20260505195327 87 106 4.0 8.0 0.00 0.00 0.00 48 1013.9
20260505194827 87 133 4.0 10.0 0.00 0.00 0.00 50 1014.0
20260505194327 87 102 4.0 9.0 0.00 0.00 0.00 48 1014.1
20260505193827 87 128 5.0 10.0 0.00 0.00 0.00 50 1014.2
20260505193500 87 19 3.0 7.0 0.00 0.00 0.00 44 1014.3
20260505193327 87 19 3.0 7.0 0.00 0.00 0.00 44 1014.3
20260505192827 86 341 2.0 5.0 0.00 0.00 0.00 46 1014.4
20260505192327 85 46 2.0 3.0 0.00 0.00 0.00 46 1014.5
20260505191954 84 83 3.0 4.0 0.00 0.00 0.00 46 1014.5
20260505191827 84 83 3.0 4.0 0.00 0.00 0.00 46 1014.5
20260505191327 84 153 5.0 7.0 0.00 0.00 0.00 49 1014.7
20260505191002 86 165 5.0 13.0 0.00 0.00 0.00 47 1014.7
20260505190827 86 165 5.0 13.0 0.00 0.00 0.00 47 1014.7
20260505190502 86 183 4.0 9.0 0.00 0.00 0.00 51 1014.6
20260505190327 86 183 4.0 9.0 0.00 0.00 0.00 51 1014.6
20260505185827 86 163 4.0 10.0 0.00 0.00 0.00 51 1014.7
20260505185327 85 48 5.0 10.0 0.00 0.00 0.00 54 1014.7
20260505184827 85 144 5.0 12.0 0.00 0.00 0.00 52 1014.7
20260505184327 85 93 4.0 8.0 0.00 0.00 0.00 51 1014.9
20260505184029 84 309 4.0 9.0 0.00 0.00 0.00 48 1014.6
20260505183827 84 309 4.0 9.0 0.00 0.00 0.00 48 1014.6
20260505183327 84 100 4.0 9.0 0.00 0.00 0.00 50 1014.7
20260505182827 84 90 4.0 10.0 0.00 0.00 0.00 53 1014.9
20260505182541 84 123 4.0 10.0 0.00 0.00 0.00 52 1014.9
20260505182327 84 123 4.0 10.0 0.00 0.00 0.00 52 1014.9
20260505181953 84 113 4.0 10.0 0.00 0.00 0.00 53 1015.0
20260505181827 84 113 4.0 10.0 0.00 0.00 0.00 53 1015.0
20260505181327 84 51 5.0 10.0 0.00 0.00 0.00 52 1015.3
20260505180827 84 59 5.0 12.0 0.00 0.00 0.00 51 1015.3
20260505180451 84 9 4.0 10.0 0.00 0.00 0.00 52 1015.4
20260505180327 84 9 4.0 10.0 0.00 0.00 0.00 52 1015.4
20260505175827 84 331 3.0 12.0 0.00 0.00 0.00 53 1015.3
20260505175327 84 291 2.0 6.0 0.00 0.00 0.00 51 1015.3
20260505174827 84 104 2.0 7.0 0.00 0.00 0.00 52 1015.5
20260505174327 84 178 3.0 9.0 0.00 0.00 0.00 51 1015.7
20260505174029 85 93 3.0 6.0 0.00 0.00 0.00 51 1015.7
20260505173827 85 93 3.0 6.0 0.00 0.00 0.00 51 1015.7
20260505173327 85 340 3.0 6.0 0.00 0.00 0.00 50 1015.6
20260505173006 85 165 4.0 8.0 0.00 0.00 0.00 52 1015.6
20260505172827 85 165 4.0 8.0 0.00 0.00 0.00 52 1015.6
20260505172327 84 38 4.0 8.0 0.00 0.00 0.00 52 1015.7
20260505171827 84 61 4.0 8.0 0.00 0.00 0.00 52 1015.8
20260505171510 84 165 4.0 9.0 0.00 0.00 0.00 54 1015.8
20260505171327 84 165 4.0 9.0 0.00 0.00 0.00 54 1015.8
20260505171025 84 342 4.0 7.0 0.00 0.00 0.00 54 1015.9
20260505170827 84 342 4.0 7.0 0.00 0.00 0.00 54 1015.9
20260505170526 84 76 5.0 9.0 0.00 0.00 0.00 52 1015.9
20260505170327 84 76 5.0 9.0 0.00 0.00 0.00 52 1015.9
20260505170028 84 126 4.0 10.0 0.00 0.00 0.00 53 1015.9
20260505165932 84 126 4.0 10.0 0.00 0.00 0.00 53 1015.9
20260505165827 84 126 4.0 10.0 0.00 0.00 0.00 53 1015.9
20260505165327 84 144 4.0 9.0 0.00 0.00 0.00 52 1016.0
20260505164827 83 50 5.0 10.0 0.00 0.00 0.00 54 1015.8
20260505164327 83 171 4.0 9.0 0.00 0.00 0.00 54 1016.0
20260505163827 82 159 5.0 10.0 0.00 0.00 0.00 57 1016.0
20260505163327 82 146 6.0 11.0 0.00 0.00 0.00 55 1015.8
20260505163010 83 129 4.0 10.0 0.00 0.00 0.00 52 1015.9
20260505162827 83 129 4.0 10.0 0.00 0.00 0.00 52 1015.9
20260505162328 83 156 3.0 6.0 0.00 0.00 0.00 52 1016.0
20260505162057 83 117 5.0 10.0 0.00 0.00 0.00 52 1016.1
20260505161827 83 117 5.0 10.0 0.00 0.00 0.00 52 1016.1
20260505161327 83 135 4.0 13.0 0.00 0.00 0.00 53 1016.0
20260505161135 83 123 4.0 6.0 0.00 0.00 0.00 51 1016.1
20260505160828 83 123 4.0 6.0 0.00 0.00 0.00 51 1016.1
20260505160328 82 129 6.0 11.0 0.00 0.00 0.00 53 1016.2
20260505153328 82 82 3.0 8.0 0.00 0.00 0.00 58 1016.1
20260505152918 82 133 4.0 7.0 0.00 0.00 0.00 58 1016.1
20260505152828 82 133 4.0 7.0 0.00 0.00 0.00 58 1016.1
20260505152328 81 126 5.0 9.0 0.00 0.00 0.00 60 1016.0
20260505152107 81 34 4.0 11.0 0.00 0.00 0.00 60 1016.0
20260505151828 81 34 4.0 11.0 0.00 0.00 0.00 60 1016.0
20260505151328 81 120 5.0 10.0 0.00 0.00 0.00 60 1016.1
20260505151124 81 76 5.0 10.0 0.00 0.00 0.00 58 1016.1
20260505150828 81 76 5.0 10.0 0.00 0.00 0.00 58 1016.1
20260505150328 81 137 4.0 11.0 0.00 0.00 0.00 57 1016.2
20260505140328 78 153 5.0 12.0 0.00 0.00 0.00 70 1015.2
20260505140210 78 146 4.0 12.0 0.00 0.00 0.00 70 1015.5